Theta_e
337 337 335 336 333 335 337 339 338 338 337 336 336 336 336 334 332 331 330 329 329 331 334 335 336 336 335 336 336 336 335 336 333
335 337 335 334 335 335 337 337 337 338 337 335 333 336 337 335 333 331 330 329 329 330 330 333 336 335 335 335 335 336 335 336 336
335 335 336 335 335 335 336 337 336 337 336 334 333 334 336 335 332 331 329 329 329 331 332 332 334 334 334 335 335 335 335 335 335
334 335 336 335 335 334 335 335 336 337 336 333 333 331 333 333 332 331 329 328 329 330 328 328 335 333 332 333 333 334 334 334 334
334 334 335 335 335 335 333 334 335 337 335 332 332 331 332 332 331 331 329 327 326 329 329 335 333 331 330 333 333 333 333 333 333
325 332 334 335 335 334 333 334 335 336 334 333 332 330 326 330 331 330 329 327 327 328 329 333 332 328 330 332 332 332 332 329 332
310 325 332 333 336 336 332 332 333 336 334 333 332 328 329 329 329 328 328 327 328 330 328 332 331 328 331 332 332 331 330 328 328
301 311 325 331 333 335 335 331 333 335 333 333 331 328 330 328 328 328 328 327 328 328 332 332 327 327 330 332 332 328 327 326 327
295 299 309 322 330 335 336 335 335 334 333 334 330 328 329 328 328 328 327 326 326 327 332 330 329 324 330 332 330 327 326 324 323
294 295 297 305 319 329 333 337 335 334 333 334 332 328 329 328 328 328 326 325 324 327 330 331 331 325 327 330 330 327 324 323 321
294 294 294 297 302 318 326 331 336 335 333 334 333 329 330 328 327 327 325 324 324 326 327 331 329 325 327 330 329 327 324 323 320
293 294 295 296 297 301 314 327 333 336 334 334 333 330 330 328 327 326 325 324 325 324 323 324 326 325 328 328 329 328 325 322 321
292 294 294 294 294 295 300 311 324 334 335 334 334 331 330 328 327 326 326 325 327 323 323 323 324 324 327 328 329 328 325 321 320
291 292 293 293 293 294 296 299 309 320 334 334 334 332 329 328 327 326 325 324 323 323 322 321 323 323 322 328 329 328 323 320 320
289 290 291 292 293 293 295 295 300 308 324 333 333 331 328 328 327 326 325 325 322 321 321 321 322 324 323 326 328 328 324 319 319
288 289 290 290 292 293 294 296 296 301 316 330 330 329 328 327 327 326 324 323 322 322 321 322 323 326 323 321 327 328 324 319 318
289 290 290 291 293 295 296 299 300 301 306 327 329 329 327 327 327 326 324 322 322 323 325 325 326 326 322 321 323 326 324 322 318
286 287 287 288 289 291 292 294 296 298 301 309 328 326 328 326 327 326 324 323 322 322 324 325 324 323 322 320 322 325 324 322 322
285 285 286 287 288 289 291 293 295 296 297 300 319 328 326 326 325 325 324 322 322 322 322 323 324 322 321 320 320 321 321 322 321
284 285 286 287 287 288 289 291 293 294 296 297 303 322 325 326 324 326 323 322 322 321 322 321 321 320 321 320 320 318 319 319 321
Wind_Speed
3 2 4 4 3 2 2 5 6 9 8 10 12 12 10 9 8 9 10 12 9 9 11 12 14 14 15 16 16 17 18 17 17
2 2 3 5 5 3 4 5 8 9 7 9 12 11 9 7 5 7 8 9 9 9 8 10 11 12 13 14 16 17 19 19 19
2 3 3 4 4 5 5 7 8 8 8 8 12 11 7 3 9 6 6 6 8 8 8 7 9 10 12 13 15 17 18 19 19
5 2 3 5 3 5 7 7 9 10 8 7 11 9 6 8 4 2 3 2 4 4 6 5 10 10 10 12 14 16 18 19 19
4 6 4 4 5 5 8 9 10 11 9 8 10 9 8 3 4 3 2 4 3 3 5 9 9 9 10 13 14 15 15 17 18
5 6 6 5 7 7 9 10 9 11 10 11 12 8 4 4 7 3 2 4 3 5 4 6 7 8 10 12 14 14 13 14 15
8 7 8 9 7 8 10 12 10 13 13 14 13 11 6 3 5 5 4 1 4 4 5 6 8 9 10 12 14 13 14 14 14
12 9 7 9 8 7 13 15 14 17 16 17 16 13 7 7 7 7 7 6 5 5 4 11 9 8 9 12 13 12 12 11 11
16 14 11 9 11 9 8 18 20 22 19 17 19 16 11 9 11 10 9 8 8 7 8 11 10 8 8 11 11 11 11 10 11
19 18 16 13 13 14 11 14 22 28 27 22 20 21 14 14 11 12 11 10 11 12 8 10 10 8 9 10 11 10 10 10 11
19 20 20 18 17 15 18 10 20 26 28 28 23 22 19 16 14 14 14 11 13 15 11 10 9 7 9 10 11 11 11 10 10
18 21 20 21 21 20 20 19 13 25 29 28 25 26 23 19 18 14 13 15 16 18 16 13 9 9 10 11 13 13 8 9 8
18 19 24 23 24 26 23 22 16 23 30 31 32 28 19 22 20 17 16 19 20 21 17 18 15 11 9 11 14 13 10 10 8
19 20 20 23 25 26 25 27 22 19 30 30 34 28 21 24 21 20 20 21 20 20 18 21 19 15 12 13 14 14 12 10 9
20 20 23 22 23 26 25 27 32 27 20 28 25 28 24 25 21 25 22 22 17 19 17 21 24 19 16 15 14 17 14 8 11
24 24 21 24 22 24 24 23 28 36 22 27 22 26 28 29 30 28 24 22 21 21 19 20 24 24 18 17 17 18 15 11 15
20 21 24 20 22 20 18 15 18 25 35 17 21 7 11 26 31 29 30 26 27 25 21 19 22 26 21 16 20 19 17 16 14
24 24 26 29 24 24 23 20 18 21 34 34 12 5 5 16 24 32 29 29 31 28 26 23 24 24 22 19 17 19 18 17 15
24 26 28 29 28 25 25 23 20 20 30 33 27 33 22 10 5 16 30 27 32 31 29 29 27 26 23 23 23 22 20 18 17
23 24 25 27 29 28 27 27 25 24 29 30 37 26 27 33 10 8 15 27 31 33 35 32 30 30 25 26 26 25 25 23 21
Wind_Direction
290 218 259 292 290 295 250 179 174 145 137 130 134 125 103 91 60 64 67 68 63 65 69 65 74 73 72 67 64 69 78 80 77
264 289 264 274 289 245 220 196 178 163 155 149 139 134 116 93 61 76 59 72 71 59 67 68 71 77 78 76 72 72 74 75 82
271 317 276 279 280 255 214 198 195 187 179 170 148 146 124 98 94 68 48 66 84 67 73 73 79 82 85 84 80 77 76 74 78
144 250 284 263 244 254 231 217 208 203 199 186 162 153 142 99 88 39 64 69 93 94 81 81 99 94 96 100 93 86 79 74 75
267 194 211 277 261 240 239 223 218 213 209 203 173 159 151 141 215 160 117 34 37 137 79 99 99 104 105 106 99 93 86 79 74
317 271 222 192 263 239 229 234 216 213 212 207 180 177 179 210 210 222 255 335 38 155 132 102 116 104 114 114 108 100 91 88 80
343 302 243 243 212 245 228 219 218 208 208 214 197 187 161 240 217 234 253 264 133 154 176 126 122 117 115 121 112 102 95 91 90
333 326 288 256 241 262 245 210 210 201 206 212 208 199 194 231 216 207 234 171 167 193 180 155 136 125 132 124 120 108 101 99 103
331 324 313 288 256 269 273 234 203 202 203 212 214 207 208 218 216 201 223 184 179 209 158 149 137 133 133 129 124 116 106 98 106
330 318 309 299 276 257 282 249 230 201 195 201 219 210 222 213 210 197 191 191 189 191 170 156 142 143 149 146 135 124 114 106 103
330 318 310 299 293 277 271 290 238 225 207 200 206 217 227 209 207 193 185 189 181 188 186 160 175 178 153 159 151 138 126 115 108
327 322 316 306 299 288 278 266 265 229 220 215 206 204 229 210 206 197 196 190 186 190 192 207 191 192 169 163 163 148 141 129 125
321 317 311 310 301 294 288 278 282 239 224 217 213 205 213 206 205 210 206 202 195 189 206 210 209 197 181 176 167 159 157 143 141
317 311 309 305 304 298 294 283 274 316 219 217 216 207 190 219 201 196 202 199 201 200 203 211 214 209 212 189 181 170 164 150 153
313 307 302 305 301 298 301 290 277 276 273 203 208 203 199 194 210 200 201 194 202 198 219 209 206 212 199 194 189 172 165 147 151
318 309 301 298 296 296 298 298 292 282 308 198 198 203 199 196 204 203 202 194 191 201 202 213 213 213 197 202 191 174 165 149 157
303 299 295 299 296 293 291 291 299 286 270 246 175 179 199 202 204 194 202 205 193 199 200 206 207 188 184 197 203 192 175 166 172
287 290 290 289 289 285 283 281 276 278 279 280 200 162 194 163 198 197 190 205 200 202 201 195 199 195 190 198 195 187 181 185 182
280 281 282 282 282 278 273 272 267 265 270 284 283 193 162 164 157 195 184 200 199 202 204 200 202 205 209 204 205 199 198 188 190
278 275 275 275 277 274 271 268 263 253 261 260 265 264 179 189 161 177 185 188 203 208 206 206 210 209 210 208 206 207 204 203 193